Temperature
11 11 10 10 10 10 10 10 11 11 11 11 11 12 12 12 12 13 13 13 13 13 13 13 14 14 14 14 14 14 14 14 14 15 15 15 15 15 16 16 15 15 16
11 11 10 10 10 10 10 10 10 10 10 11 11 11 11 12 12 12 12 13 13 13 13 13 13 13 14 14 14 14 14 14 14 14 14 14 15 15 15 15 15 15 15
11 11 11 11 10 10 10 10 10 10 10 11 11 11 11 11 12 12 12 12 12 12 13 13 13 13 13 13 14 14 14 14 14 14 14 14 14 14 14 15 15 15 14
11 11 10 10 10 10 10 10 10 10 10 10 10 11 11 11 11 12 12 12 12 12 12 12 13 13 13 13 13 13 13 14 14 14 14 14 14 14 14 14 14 14 14
11 11 10 10 10 10 10 10 10 10 10 10 10 11 11 11 11 11 12 12 12 12 12 12 12 13 13 13 13 13 13 13 13 13 13 13 13 13 14 14 14 13 13
11 11 10 10 10 10 10 10 10 10 10 10 10 10 11 11 11 11 11 11 12 12 12 12 12 12 12 13 13 13 13 13 13 13 13 13 13 13 13 13 13 13 12
11 11 11 10 10 10 10 10 10 10 10 10 10 10 10 11 11 11 11 11 11 11 12 12 12 12 12 12 12 13 13 13 13 13 13 13 13 13 13 13 13 13 13
12 11 11 10 10 10 10 10 10 10 10 10 10 10 10 10 11 11 11 11 11 11 11 11 11 12 12 12 12 12 12 13 13 13 13 13 13 13 13 13 13 12 12
12 11 11 11 10 10 10 10 10 10 10 10 10 10 10 10 11 11 11 11 11 11 11 11 11 11 12 12 12 12 12 12 13 13 13 13 13 13 13 12 12 12 12
12 12 11 11 11 11 10 10 10 10 10 10 10 10 10 10 11 11 11 11 11 11 11 11 11 11 12 12 12 12 12 12 12 12 12 12 12 12 12 12 12 12 12
13 12 12 11 11 11 11 11 10 10 10 10 10 10 10 11 11 11 11 11 11 11 11 11 11 11 11 12 12 12 12 12 12 12 12 12 12 12 12 12 12 12 12
13 13 12 12 12 11 11 11 11 11 10 10 10 10 10 11 11 11 11 11 11 11 11 11 11 11 11 11 11 12 12 12 12 12 12 12 12 12 12 12 12 12 12
14 13 13 12 12 12 12 11 11 11 11 11 11 11 10 10 11 11 11 11 11 11 11 11 11 11 11 11 11 11 11 11 11 11 11 11 11 11 11 11 11 11 11
14 14 13 13 12 12 12 12 11 11 11 11 11 11 11 10 10 11 11 11 11 11 11 11 11 11 11 11 11 11 11 11 11 11 11 11 11 11 11 11 11 11 11
14 14 14 13 13 13 13 13 12 12 12 11 11 11 11 11 11 11 11 11 11 11 11 11 11 11 11 11 11 11 11 11 11 11 11 11 11 11 11 11 11 10 10
14 14 14 14 14 13 13 13 13 13 13 12 12 12 12 11 11 11 11 11 11 11 11 10 10 11 11 11 11 11 11 11 11 11 11 11 11 11 10 10 10 10 10
14 14 14 14 14 14 13 13 13 13 13 13 13 12 12 12 12 11 11 11 11 11 11 11 11 11 11 11 11 11 11 11 11 10 10 10 10 10 10 10 10 10 10
15 15 14 14 14 14 14 13 13 13 13 13 13 13 12 12 12 12 11 11 11 11 11 11 11 11 11 11 11 11 10 10 10 10 10 10 10 10 10 10 10 10 10
14 14 14 15 15 14 14 14 13 13 13 13 13 13 13 12 12 12 12 11 11 11 11 11 11 11 11 11 11 11 11 10 10 10 10 10 10 10 10 10 10 10 9
14 14 14 14 14 14 14 14 14 14 13 13 13 13 13 13 12 12 12 12 12 11 11 11 11 11 11 11 11 11 11 11 10 10 10 10 10 10 10 10 9 9 9
12 13 13 13 13 13 13 13 13 13 13 13 14 13 13 13 12 12 12 12 12 12 12 12 11 11 11 11 11 11 11 11 11 11 10 10 10 10 10 10 9 9 9
11 11 11 11 11 12 12 12 13 13 13 13 13 13 13 13 13 12 12 12 12 12 12 12 12 12 12 12 12 11 11 11 11 11 10 10 10 10 9 9 9 9 9
9 10 10 10 10 10 11 11 11 12 12 13 13 13 13 13 13 13 13 13 13 13 13 12 12 12 12 12 12 12 11 11 11 11 10 10 10 10 9 9 9 9 9
8 8 8 8 8 9 9 10 10 10 11 11 12 12 12 12 12 13 13 13 13 13 13 13 13 12 12 12 12 12 12 11 11 11 11 10 10 10 9 9 9 9 9
6 6 7 7 7 7 7 8 8 9 9 10 10 11 11 11 12 12 12 12 12 12 13 13 13 13 12 12 12 12 12 12 11 11 11 10 10 10 9 9 9 9 8
5 5 5 5 5 5 6 6 6 7 7 8 8 9 9 10 10 11 11 11 12 12 12 12 13 13 13 13 12 12 12 12 12 11 11 10 10 10 9 9 9 8 8
Wind_Speed
7 8 8 8 8 8 8 9 9 9 9 9 8 8 7 7 6 4 4 4 4 5 6 7 8 8 7 7 7 7 7 7 7 5 4 5 7 8 7 9 9 10 11
6 7 8 8 8 9 9 9 9 9 9 9 9 8 8 7 6 5 5 5 4 4 4 5 7 6 8 7 7 8 7 7 7 7 5 5 6 7 7 8 7 8 8
5 6 7 8 8 9 9 9 9 9 9 9 9 9 8 7 7 6 5 5 4 3 3 3 4 6 7 6 7 7 6 6 6 6 6 4 4 5 7 6 7 6 7
4 6 7 7 8 8 8 8 8 9 9 9 8 8 8 7 7 6 5 4 3 3 2 1 1 2 4 6 6 7 6 6 6 6 6 5 4 5 7 7 6 5 5
4 5 6 7 7 7 8 8 8 8 8 8 8 8 8 8 9 9 7 5 4 3 3 3 3 2 2 2 3 5 6 6 5 5 6 5 6 6 6 6 7 6 4
3 4 5 6 6 7 7 8 8 8 8 8 9 8 8 8 12 12 9 5 5 4 3 3 2 2 2 1 1 1 3 5 6 6 6 6 7 7 6 7 7 7 4
3 3 4 5 5 6 7 7 7 7 7 8 8 8 8 9 12 12 11 6 4 4 4 4 3 3 1 1 3 4 3 2 3 5 6 6 6 7 8 8 8 7 5
3 3 3 4 5 5 6 7 7 7 6 7 7 7 7 8 12 12 12 6 4 4 4 4 3 2 3 3 0 1 2 2 2 4 4 4 4 6 8 8 7 7 7
3 3 3 3 4 5 5 6 6 6 6 6 6 6 6 7 10 12 11 5 4 4 3 4 4 3 4 4 1 2 2 3 4 3 3 4 4 5 7 7 9 9 6
3 3 3 3 4 4 5 5 5 5 5 5 5 5 6 6 8 10 11 4 4 3 3 3 6 6 5 5 1 1 2 2 3 5 5 6 6 7 7 8 8 9 6
4 4 4 4 4 4 5 4 5 5 5 5 5 4 4 5 5 8 10 5 4 3 3 3 4 6 5 4 3 1 2 1 3 4 5 5 5 5 5 4 5 6 6
5 5 6 5 5 4 5 5 5 5 5 5 5 4 3 3 4 6 8 7 7 3 3 3 4 5 4 3 2 4 2 1 3 3 4 4 4 4 4 5 5 4 3
6 7 7 7 6 6 6 6 5 5 5 5 4 4 3 3 2 1 3 4 6 3 3 5 5 4 2 1 4 2 2 2 3 3 4 4 4 4 5 5 6 7 7
8 8 8 8 7 7 5 6 6 5 5 5 5 5 4 3 3 3 3 2 2 2 1 1 1 1 1 2 2 2 1 1 2 3 4 4 4 4 4 5 5 6 6
10 9 9 8 8 8 7 7 7 7 5 6 5 5 5 5 2 4 6 5 5 4 5 3 2 2 2 2 2 1 1 2 3 3 4 5 5 5 5 4 4 4 4
10 9 8 8 7 8 8 8 10 11 8 10 11 9 7 6 4 5 7 7 7 7 6 4 3 3 3 3 3 3 3 3 3 3 4 5 5 5 5 5 5 5 5
11 10 8 8 8 8 8 8 8 9 14 15 15 15 15 10 9 9 9 8 8 7 6 5 4 4 4 4 4 4 4 4 4 4 4 5 5 5 6 6 5 5 5
11 10 10 9 9 9 9 9 9 9 8 8 12 17 16 15 14 12 9 7 8 8 7 7 6 5 5 5 5 5 5 5 5 5 5 5 6 6 6 6 6 6 6
9 8 8 9 9 10 10 10 10 11 10 10 9 9 14 14 13 13 10 9 9 8 8 8 7 7 6 6 6 6 6 6 6 6 6 6 6 6 6 6 6 7 6
8 9 9 10 10 10 10 10 11 11 11 11 11 10 8 8 9 10 11 11 10 10 9 9 8 8 8 7 7 7 7 7 8 7 7 7 7 7 7 8 7 8 7
9 9 8 9 9 10 10 11 11 11 12 12 12 11 10 10 11 12 11 11 11 11 11 10 10 9 9 9 9 10 10 9 9 9 8 8 8 8 8 8 8 8 8
9 9 9 9 9 9 10 11 11 12 12 14 12 11 12 12 12 12 12 12 12 12 11 11 10 10 10 10 10 11 11 11 10 10 10 10 9 9 9 9 9 9 8
11 11 11 10 10 10 10 10 11 12 12 13 13 12 11 11 13 13 14 13 13 12 12 12 12 11 11 11 12 12 12 12 11 11 11 11 11 10 10 11 11 11 11
12 12 12 11 11 11 11 11 11 12 12 13 13 13 12 12 13 14 14 13 13 13 13 13 14 16 18 14 12 13 13 13 13 12 14 13 12 11 11 11 12 13 12
11 12 12 12 12 12 12 12 12 13 13 13 13 13 13 13 13 14 14 14 15 15 16 15 14 16 20 21 18 16 16 17 15 13 12 13 14 14 13 13 12 12 12
11 12 11 11 12 12 12 13 13 14 13 13 13 13 13 13 14 14 13 13 13 14 15 15 17 19 20 19 22 20 19 21 21 18 14 13 14 14 14 13 14 13 13
Wind_Direction
353 354 353 355 354 354 356 355 351 351 353 352 350 348 348 345 340 332 319 307 290 270 251 237 233 228 220 211 206 208 212 216 227 219 200 198 195 198 186 197 195 186 184
352 353 355 354 356 359 359 355 353 355 356 355 355 356 355 351 348 347 339 331 319 298 268 241 232 225 219 213 209 208 207 211 216 214 195 194 201 195 187 188 187 184 178
353 353 356 360 1 0 359 357 355 357 357 360 2 3 358 354 357 354 350 346 346 330 299 256 239 227 220 213 211 206 202 204 209 205 192 186 192 185 178 177 175 167 165
350 353 358 1 360 358 1 358 357 358 359 3 5 3 2 2 2 360 0 1 4 3 348 324 274 239 233 220 209 204 199 200 203 201 190 183 182 180 176 170 167 158 159
342 352 358 358 359 358 359 359 358 359 1 6 7 7 9 10 8 1 357 358 6 12 12 26 27 18 357 278 230 206 196 195 195 196 191 184 182 178 180 172 164 147 142
332 349 355 351 359 359 359 359 1 1 3 8 7 9 11 16 7 2 353 356 2 9 10 17 41 64 79 159 207 230 217 205 197 198 198 195 193 186 176 170 161 158 158
316 338 345 351 356 360 1 2 0 2 4 5 6 7 10 17 10 6 356 349 9 15 11 14 24 33 5 107 160 179 172 183 228 222 208 205 194 186 180 176 175 170 154
302 318 331 336 345 352 356 358 356 359 0 359 0 2 5 14 10 4 345 348 12 17 12 7 10 21 17 5 55 161 156 156 201 218 214 202 187 182 180 175 159 139 121
280 296 307 320 331 337 344 348 352 351 352 351 356 354 356 10 12 360 344 2 11 21 23 21 10 21 30 343 323 142 135 118 98 90 94 122 124 145 155 156 155 152 144
264 275 286 301 310 317 329 334 340 339 340 340 347 348 351 359 12 360 345 355 8 17 25 37 38 21 17 346 312 131 130 124 135 138 136 141 145 147 161 171 167 163 151
254 261 268 274 285 298 309 313 316 325 329 334 337 339 345 355 7 9 354 354 357 1 13 23 32 22 12 1 341 52 78 108 133 133 131 131 136 146 159 165 165 168 166
245 251 258 265 272 279 285 295 303 308 311 318 326 336 338 344 0 3 357 359 343 351 1 13 34 17 10 6 36 80 91 203 143 139 134 130 130 130 127 123 118 106 100
244 250 256 260 261 265 274 281 288 290 299 310 315 321 329 333 327 277 316 341 342 343 11 19 9 357 329 122 98 116 195 178 157 154 141 127 122 125 122 114 106 99 93
250 254 254 257 259 259 260 268 276 284 290 296 304 306 310 305 315 333 329 319 285 298 332 96 193 348 360 62 147 184 196 140 168 154 141 132 128 131 134 136 135 133 122
256 256 256 255 258 262 258 255 263 265 267 275 289 292 296 297 357 354 321 323 329 339 324 286 252 234 217 198 193 174 172 165 162 156 153 151 149 147 145 147 155 163 163
265 266 262 258 253 254 260 256 228 237 233 230 243 262 270 261 276 275 284 295 302 305 292 268 251 242 239 230 217 200 193 184 174 170 170 166 164 162 158 162 175 178 168
265 268 266 262 259 255 255 260 265 239 226 234 235 235 243 255 248 253 263 275 274 270 262 256 248 242 236 232 224 216 209 196 186 185 183 179 175 173 173 174 177 176 170
270 268 264 261 260 260 260 259 260 266 263 251 228 225 230 235 237 239 243 259 251 235 247 251 245 239 232 229 224 219 212 200 198 199 194 190 186 186 184 185 185 183 178
285 277 271 267 260 259 258 257 257 258 259 261 258 226 215 224 227 229 220 236 249 247 241 241 243 239 232 228 224 218 215 211 206 205 202 198 196 195 195 195 190 175 190
302 290 283 279 271 264 259 256 255 255 256 257 255 253 225 208 226 221 216 227 238 243 242 239 236 236 232 227 223 218 216 213 210 211 208 204 203 203 201 199 195 191 199
322 314 293 282 277 274 270 265 262 259 258 258 256 250 231 231 241 241 233 228 231 236 236 235 233 229 228 225 222 219 219 216 212 211 209 206 203 204 206 205 203 204 202
336 331 324 313 302 292 287 280 275 269 264 263 263 252 211 229 244 245 242 238 234 234 234 230 229 226 222 220 220 221 221 219 215 211 211 208 207 207 206 206 205 205 205
348 344 338 331 322 313 302 293 288 282 277 273 269 264 248 239 242 243 244 242 238 233 229 225 228 226 221 220 220 221 223 221 217 213 211 209 208 209 209 209 209 209 211
354 350 347 343 340 333 325 317 308 300 293 288 282 275 267 259 254 252 248 246 240 235 229 224 225 226 222 218 218 219 223 222 217 215 215 214 211 212 211 212 213 213 214
358 356 353 350 347 342 337 332 326 320 313 304 297 291 285 278 270 264 258 252 247 241 235 229 227 227 227 222 218 217 212 208 211 213 210 214 216 214 214 214 213 214 214
358 357 356 354 352 348 344 339 335 332 327 322 315 307 300 293 285 279 271 263 255 248 243 237 232 229 227 224 223 217 205 199 200 206 211 212 215 216 214 216 216 215 215
Height
1526 1523 1520 1517 1514 1511 1508 1504 1502 1499 1496 1494 1491 1489 1487 1485 1484 1483 1481 1481 1480 1480 1480 1480 1481 1483 1484 1486 1488 1490 1492 1496 1498 1500 1502 1505 1508 1510 1513 1516 1519 1521 1523
1526 1523 1520 1517 1515 1512 1508 1505 1502 1499 1497 1494 1491 1489 1487 1485 1483 1482 1480 1479 1478 1477 1477 1477 1478 1479 1480 1482 1484 1486 1488 1490 1493 1495 1497 1500 1503 1506 1508 1511 1514 1516 1519
1526 1523 1521 1518 1515 1512 1509 1506 1503 1500 1497 1495 1492 1489 1487 1484 1483 1481 1479 1478 1476 1475 1475 1475 1475 1476 1477 1479 1480 1482 1484 1486 1489 1491 1493 1495 1498 1501 1504 1506 1509 1512 1514
1526 1523 1521 1518 1515 1512 1510 1506 1504 1501 1498 1495 1493 1490 1487 1485 1483 1481 1479 1478 1476 1475 1474 1473 1473 1474 1475 1477 1478 1479 1481 1483 1485 1487 1489 1491 1494 1496 1499 1502 1505 1507 1510
1526 1524 1521 1518 1515 1513 1510 1507 1504 1501 1499 1496 1494 1491 1488 1486 1483 1482 1480 1479 1477 1476 1474 1473 1472 1472 1473 1474 1476 1477 1478 1480 1482 1484 1485 1488 1490 1492 1494 1497 1500 1503 1506
1526 1524 1521 1518 1516 1513 1510 1507 1505 1502 1500 1497 1494 1492 1489 1487 1484 1482 1480 1479 1478 1476 1475 1474 1473 1472 1473 1473 1474 1475 1476 1478 1480 1481 1483 1484 1486 1488 1491 1494 1496 1499 1502
1525 1523 1521 1519 1516 1513 1511 1508 1505 1503 1500 1497 1495 1493 1490 1488 1485 1483 1481 1480 1479 1477 1476 1475 1474 1473 1473 1473 1473 1473 1474 1476 1478 1479 1481 1482 1484 1485 1487 1490 1493 1496 1498
1525 1523 1520 1518 1516 1514 1511 1508 1506 1504 1501 1498 1496 1493 1491 1488 1486 1484 1482 1481 1479 1478 1476 1476 1475 1474 1473 1473 1473 1473 1474 1475 1476 1478 1479 1480 1482 1484 1485 1488 1490 1494 1497
1524 1522 1520 1518 1516 1514 1511 1509 1506 1504 1501 1499 1496 1494 1492 1490 1487 1485 1483 1482 1480 1478 1477 1476 1475 1474 1473 1473 1473 1473 1473 1474 1475 1476 1477 1478 1480 1481 1483 1486 1488 1491 1493
1523 1521 1519 1517 1515 1513 1511 1509 1506 1504 1501 1499 1496 1494 1492 1490 1488 1486 1483 1483 1481 1479 1478 1476 1475 1474 1473 1473 1474 1473 1473 1474 1474 1475 1476 1477 1479 1480 1482 1485 1487 1489 1491
1521 1519 1518 1516 1515 1513 1511 1508 1506 1504 1501 1499 1497 1495 1492 1490 1488 1486 1484 1483 1481 1480 1479 1477 1476 1475 1474 1473 1473 1474 1473 1474 1474 1475 1476 1477 1478 1480 1481 1484 1486 1488 1491
1519 1518 1516 1515 1514 1512 1510 1508 1506 1504 1502 1500 1498 1496 1493 1490 1488 1486 1485 1483 1482 1481 1479 1478 1476 1475 1474 1474 1474 1474 1474 1475 1475 1476 1476 1477 1478 1479 1481 1482 1484 1487 1490
1517 1516 1515 1514 1512 1510 1509 1507 1505 1503 1502 1500 1498 1496 1493 1491 1488 1486 1485 1483 1482 1481 1479 1478 1477 1476 1475 1475 1474 1474 1475 1475 1476 1476 1476 1477 1478 1479 1481 1482 1484 1486 1489
1515 1514 1513 1512 1510 1509 1507 1505 1504 1502 1501 1499 1497 1495 1493 1491 1489 1486 1485 1484 1482 1481 1480 1478 1477 1476 1476 1475 1475 1475 1475 1475 1476 1476 1476 1477 1478 1479 1481 1482 1484 1486 1488
1512 1511 1510 1509 1507 1506 1504 1503 1501 1500 1498 1496 1495 1493 1491 1490 1488 1485 1484 1483 1482 1481 1479 1479 1478 1477 1477 1476 1476 1475 1475 1475 1475 1476 1477 1478 1478 1480 1481 1482 1484 1486 1488
1509 1509 1507 1506 1504 1503 1501 1500 1498 1496 1495 1493 1492 1490 1488 1487 1485 1484 1483 1482 1480 1479 1479 1478 1477 1477 1476 1476 1475 1475 1475 1475 1475 1476 1477 1478 1479 1480 1481 1482 1483 1485 1487
1505 1504 1503 1502 1500 1499 1497 1496 1495 1493 1491 1490 1488 1487 1486 1484 1483 1482 1481 1480 1478 1478 1477 1477 1476 1475 1475 1474 1474 1474 1474 1474 1474 1475 1475 1477 1478 1479 1480 1481 1482 1484 1485
1499 1499 1498 1496 1495 1494 1493 1492 1490 1489 1488 1485 1484 1483 1482 1481 1480 1479 1478 1477 1476 1475 1474 1474 1473 1473 1472 1472 1472 1472 1472 1472 1472 1473 1474 1475 1476 1477 1478 1479 1481 1482 1484
1494 1493 1492 1491 1489 1488 1487 1486 1485 1484 1482 1481 1480 1478 1477 1476 1475 1475 1474 1473 1472 1471 1471 1470 1469 1469 1469 1469 1469 1469 1469 1469 1470 1470 1471 1472 1473 1474 1476 1477 1479 1480 1481
1488 1487 1486 1484 1483 1482 1481 1480 1479 1478 1477 1475 1474 1473 1472 1471 1470 1469 1468 1467 1467 1466 1466 1465 1465 1464 1464 1464 1464 1465 1465 1466 1466 1467 1468 1469 1470 1471 1473 1474 1476 1477 1478
1484 1482 1480 1478 1477 1476 1475 1474 1473 1472 1470 1469 1468 1467 1466 1465 1464 1463 1462 1461 1460 1460 1460 1459 1459 1459 1459 1459 1459 1460 1461 1462 1462 1463 1464 1465 1466 1468 1469 1471 1472 1474 1475
1481 1479 1476 1474 1472 1471 1469 1468 1467 1465 1463 1462 1461 1460 1459 1458 1457 1456 1456 1454 1454 1453 1453 1453 1452 1452 1452 1453 1453 1454 1455 1456 1457 1458 1459 1461 1462 1463 1465 1466 1468 1470 1471
1478 1476 1473 1471 1468 1466 1464 1462 1461 1459 1457 1456 1455 1453 1452 1450 1449 1448 1447 1447 1446 1446 1445 1445 1445 1445 1445 1446 1446 1447 1448 1449 1451 1452 1453 1455 1456 1458 1460 1461 1463 1465 1466
1476 1473 1470 1468 1465 1462 1460 1458 1456 1454 1452 1450 1448 1447 1445 1443 1442 1440 1439 1439 1438 1438 1437 1437 1437 1437 1438 1438 1439 1439 1441 1442 1444 1445 1447 1448 1450 1452 1454 1455 1457 1459 1461
1475 1472 1469 1465 1462 1459 1457 1454 1451 1449 1446 1444 1442 1440 1438 1436 1435 1433 1432 1431 1430 1429 1428 1428 1428 1428 1429 1429 1430 1431 1433 1435 1436 1438 1439 1441 1443 1445 1447 1449 1450 1452 1454
1474 1471 1467 1464 1461 1457 1454 1451 1447 1445 1442 1439 1436 1434 1431 1429 1427 1425 1424 1422 1421 1420 1419 1419 1418 1419 1420 1421 1421 1423 1424 1426 1428 1430 1432 1433 1435 1437 1439 1441 1443 1445 1447